Regional Weather Roundup
Issued by NWS Spokane, WA

Home | Current Version | Previous Version | Text Only | Print | Product List | Glossary On
Versions: 1 2 3 4 5 6 7 8 9 10 11 12 13 14 15 16 17 18 19 20 21 22 23 24 25 26 27 28 29 30 31 32 33 34 35 36 37 38 39 40 41 42 43 44 45 46 47 48 49 50
000
NZUS01 KOTX 010210
RWROTX
EASTERN WASHINGTON/NORTHERN IDAHO ROUNDUP
NATIONAL WEATHER SERVICE, SPOKANE WA
700 PM PDT TUE JUN 30 2015

Note: "fair" indicated few or no clouds below 12,000 feet with no
significant weather and/or obstructions to visibility.

...NORTHEAST WASHINGTON AND NORTHERN IDAHO PANHANDLE...

CITY           SKY/WX    TMP DP  RH WIND       PRES   REMARKS
SPOKANE INTL   MOSUNNY   92  43  18 W5        29.95S
SPOKANE DOWNTO SUNNY     93  47  20 VRB3      29.92F
COEUR D ALENE  SUNNY     90  48  24 NW7       29.93F
DEER PARK      SUNNY     91  49  23 VRB3      29.95F
BONNERS FERRY  FAIR      82  55  39 N8        29.94F

...SOUTHEAST WASHINGTON AND SOUTHERN IDAHO PANHANDLE...

CITY           SKY/WX    TMP DP  RH WIND       PRES   REMARKS
WALLA WALLA    SUNNY     97  42  15 NW12      29.89F HX  93
PULLMAN/MOSCOW SUNNY     88  51  28 W5        29.98F
LEWISTON       SUNNY     97  46  17 NW13      29.87F HX  93
LOWELL           N/A     85  59  41 CALM      29.88S

...COLUMBIA BASIN...

CITY           SKY/WX    TMP DP  RH WIND       PRES   REMARKS
EPHRATA        SUNNY     96  48  19 SW10      29.87F HX  92
MOSES LAKE     SUNNY     97  47  18 SW8       29.88F HX  93
TRI CITIES     SUNNY    100  50  18 E8        29.84S HX  97
HERMISTON      SUNNY     98  41  14 SW5       29.85F HX  93
PENDLETON      SUNNY     95  35  12 NW5       29.91F HX  90

...EAST SLOPES CASCADES...

CITY           SKY/WX    TMP DP  RH WIND       PRES   REMARKS
THE DALLES     SUNNY     95  58  28 W18G25    29.85F HX  94
YAKIMA         SUNNY     98  51  20 N12G21    29.89S HX  95
ELLENSBURG     SUNNY     90  48  23 NW23G31   29.95S
WENATCHEE      SUNNY     98  47  17 NW15      29.88S HX  94
OMAK           SUNNY     96  48  19 S6        29.86F HX  92

...SOUTHERN BRITISH COLUMBIA...

CITY           SKY/WX    TMP DP  RH WIND       PRES   REMARKS
PENTICTON      MOSUNNY   88  61  40 N7        29.87F

...WESTERN MONTANA...

CITY           SKY/WX    TMP DP  RH WIND       PRES   REMARKS
MISSOULA       MOSUNNY   89  43  20 NW13      29.97S

...NEIGHBORING CITIES...

CITY           SKY/WX    TMP DP  RH WIND       PRES   REMARKS
SEATTLE        MOSUNNY   86  53  32 N10       30.03S
CALGARY        PTSUNNY   68  59  73 NE7       30.04S SMOKE



USA.gov is the U.S. government's official web portal to all federal, state and local government web resources and services.